Find Starlink 4499

NORAD ID: 53402 Int'l Des: 2022-097 Owner: SPXS Country: US Constellation: starlink operational
LEOCIRCULAR

リアルタイム位置

3D地球を読み込み中...

Starlink 4499について

説明を読み込み中...

次回通過

Passes for default location (London). Set your location on the main map for personalized predictions.

高度履歴

Loading altitude history...

軌道要素

1 53402U 22097Q 26121.32540460 .00000433 00000-0 45314-4 0 9991
2 53402 53.2176 247.8309 0001305 93.5252 266.5890 15.08837297206462
Epoch: May 1, 2026 • Age: 7 hours

現在のステータス

高度 556.4 km
速度 7.58 km/s
衛星直下点 -46.52°S, 29.78°E
打ち上げ日 Aug 10, 2022
運用期間 3.7 years
タイプ internet

技術仕様

分類 Payload
質量 297.00 kg
乾燥質量 275.00 kg
総質量 297.00 kg
長さ 0.20 m
直径 2.80 m
スパン 9.00 m
形状 Box + pan
製造者 SPXS
バスタイプ Starlink
フェーズステータス In Orbit
所有者/国 SPXS/US

Most Searched